<?xml version="1.0"?>
<gpx xmlns="http://www.topografix.com/GPX/1/1" xmlns:xsi="http://www.w3.org/2001/XMLSchema-instance" version="1.1" creator="GPX RubyGem 1.0.0 -- http://dougfales.github.io/gpx/" xsi:schemaLocation="http://www.topografix.com/GPX/1/1 http://www.topografix.com/GPX/1/1/gpx.xsd">
  <metadata>
    <name/>
    <time>2026-05-07T16:46:01+00:00</time>
    <bound minlat="90.0" minlon="180.0" maxlat="-90.0" maxlon="-180.0"/>
  </metadata>
  <trk>
    <name/>
    <trkseg>
      <trkpt lat="47.761541" lon="10.106338">
        <time>1970-01-01T00:00:00+00:00</time>
        <ele>746.0</ele>
      </trkpt>
      <trkpt lat="47.761636" lon="10.106483">
        <time>1970-01-01T00:00:00+00:00</time>
        <ele>746.0</ele>
      </trkpt>
      <trkpt lat="47.761898" lon="10.106771">
        <time>1970-01-01T00:00:00+00:00</time>
        <ele>746.0</ele>
      </trkpt>
      <trkpt lat="47.762068" lon="10.106891">
        <time>1970-01-01T00:00:00+00:00</time>
        <ele>748.0</ele>
      </trkpt>
      <trkpt lat="47.762166" lon="10.106937">
        <time>1970-01-01T00:00:00+00:00</time>
        <ele>750.0</ele>
      </trkpt>
      <trkpt lat="47.762552" lon="10.106997">
        <time>1970-01-01T00:00:00+00:00</time>
        <ele>753.0</ele>
      </trkpt>
      <trkpt lat="47.76275" lon="10.107109">
        <time>1970-01-01T00:00:00+00:00</time>
        <ele>755.0</ele>
      </trkpt>
      <trkpt lat="47.763506" lon="10.107433">
        <time>1970-01-01T00:00:00+00:00</time>
        <ele>753.0</ele>
      </trkpt>
      <trkpt lat="47.763799" lon="10.107661">
        <time>1970-01-01T00:00:00+00:00</time>
        <ele>752.0</ele>
      </trkpt>
      <trkpt lat="47.763823" lon="10.107695">
        <time>1970-01-01T00:00:00+00:00</time>
        <ele>752.0</ele>
      </trkpt>
      <trkpt lat="47.763994" lon="10.10807">
        <time>1970-01-01T00:00:00+00:00</time>
        <ele>754.0</ele>
      </trkpt>
      <trkpt lat="47.764193" lon="10.108427">
        <time>1970-01-01T00:00:00+00:00</time>
        <ele>755.0</ele>
      </trkpt>
      <trkpt lat="47.764482" lon="10.109131">
        <time>1970-01-01T00:00:00+00:00</time>
        <ele>760.0</ele>
      </trkpt>
      <trkpt lat="47.764991" lon="10.10988">
        <time>1970-01-01T00:00:00+00:00</time>
        <ele>765.0</ele>
      </trkpt>
      <trkpt lat="47.765142" lon="10.110271">
        <time>1970-01-01T00:00:00+00:00</time>
        <ele>776.0</ele>
      </trkpt>
      <trkpt lat="47.765243" lon="10.110591">
        <time>1970-01-01T00:00:00+00:00</time>
        <ele>785.0</ele>
      </trkpt>
      <trkpt lat="47.765519" lon="10.111453">
        <time>1970-01-01T00:00:00+00:00</time>
        <ele>790.0</ele>
      </trkpt>
      <trkpt lat="47.766088" lon="10.112337">
        <time>1970-01-01T00:00:00+00:00</time>
        <ele>777.0</ele>
      </trkpt>
      <trkpt lat="47.76616" lon="10.112262">
        <time>1970-01-01T00:00:00+00:00</time>
        <ele>776.0</ele>
      </trkpt>
      <trkpt lat="47.766229" lon="10.11227">
        <time>1970-01-01T00:00:00+00:00</time>
        <ele>774.0</ele>
      </trkpt>
      <trkpt lat="47.766348" lon="10.112415">
        <time>1970-01-01T00:00:00+00:00</time>
        <ele>773.0</ele>
      </trkpt>
      <trkpt lat="47.766419" lon="10.112464">
        <time>1970-01-01T00:00:00+00:00</time>
        <ele>772.0</ele>
      </trkpt>
      <trkpt lat="47.766726" lon="10.112314">
        <time>1970-01-01T00:00:00+00:00</time>
        <ele>772.0</ele>
      </trkpt>
      <trkpt lat="47.766953" lon="10.112906">
        <time>1970-01-01T00:00:00+00:00</time>
        <ele>783.0</ele>
      </trkpt>
      <trkpt lat="47.76707" lon="10.112983">
        <time>1970-01-01T00:00:00+00:00</time>
        <ele>793.0</ele>
      </trkpt>
      <trkpt lat="47.767415" lon="10.11321">
        <time>1970-01-01T00:00:00+00:00</time>
        <ele>810.0</ele>
      </trkpt>
      <trkpt lat="47.767838" lon="10.113288">
        <time>1970-01-01T00:00:00+00:00</time>
        <ele>820.0</ele>
      </trkpt>
      <trkpt lat="47.768114" lon="10.113431">
        <time>1970-01-01T00:00:00+00:00</time>
        <ele>819.0</ele>
      </trkpt>
      <trkpt lat="47.76839" lon="10.113659">
        <time>1970-01-01T00:00:00+00:00</time>
        <ele>808.0</ele>
      </trkpt>
      <trkpt lat="47.768496" lon="10.113892">
        <time>1970-01-01T00:00:00+00:00</time>
        <ele>806.0</ele>
      </trkpt>
      <trkpt lat="47.768506" lon="10.113937">
        <time>1970-01-01T00:00:00+00:00</time>
        <ele>805.0</ele>
      </trkpt>
      <trkpt lat="47.768513" lon="10.113982">
        <time>1970-01-01T00:00:00+00:00</time>
        <ele>804.0</ele>
      </trkpt>
      <trkpt lat="47.76852" lon="10.114021">
        <time>1970-01-01T00:00:00+00:00</time>
        <ele>804.0</ele>
      </trkpt>
      <trkpt lat="47.768523" lon="10.114039">
        <time>1970-01-01T00:00:00+00:00</time>
        <ele>803.0</ele>
      </trkpt>
      <trkpt lat="47.768678" lon="10.113976">
        <time>1970-01-01T00:00:00+00:00</time>
        <ele>808.0</ele>
      </trkpt>
      <trkpt lat="47.76877" lon="10.114083">
        <time>1970-01-01T00:00:00+00:00</time>
        <ele>809.0</ele>
      </trkpt>
      <trkpt lat="47.768959" lon="10.114468">
        <time>1970-01-01T00:00:00+00:00</time>
        <ele>813.0</ele>
      </trkpt>
      <trkpt lat="47.769055" lon="10.11453">
        <time>1970-01-01T00:00:00+00:00</time>
        <ele>815.0</ele>
      </trkpt>
      <trkpt lat="47.769343" lon="10.114584">
        <time>1970-01-01T00:00:00+00:00</time>
        <ele>822.0</ele>
      </trkpt>
      <trkpt lat="47.769573" lon="10.114557">
        <time>1970-01-01T00:00:00+00:00</time>
        <ele>822.0</ele>
      </trkpt>
      <trkpt lat="47.769736" lon="10.115056">
        <time>1970-01-01T00:00:00+00:00</time>
        <ele>822.0</ele>
      </trkpt>
      <trkpt lat="47.769914" lon="10.115467">
        <time>1970-01-01T00:00:00+00:00</time>
        <ele>823.0</ele>
      </trkpt>
      <trkpt lat="47.770121" lon="10.116138">
        <time>1970-01-01T00:00:00+00:00</time>
        <ele>825.0</ele>
      </trkpt>
      <trkpt lat="47.77022" lon="10.11635">
        <time>1970-01-01T00:00:00+00:00</time>
        <ele>826.0</ele>
      </trkpt>
      <trkpt lat="47.771166" lon="10.117599">
        <time>1970-01-01T00:00:00+00:00</time>
        <ele>836.0</ele>
      </trkpt>
      <trkpt lat="47.771842" lon="10.118431">
        <time>1970-01-01T00:00:00+00:00</time>
        <ele>845.0</ele>
      </trkpt>
      <trkpt lat="47.771903" lon="10.118285">
        <time>1970-01-01T00:00:00+00:00</time>
        <ele>845.0</ele>
      </trkpt>
      <trkpt lat="47.772055" lon="10.118103">
        <time>1970-01-01T00:00:00+00:00</time>
        <ele>844.0</ele>
      </trkpt>
      <trkpt lat="47.772141" lon="10.118184">
        <time>1970-01-01T00:00:00+00:00</time>
        <ele>844.0</ele>
      </trkpt>
      <trkpt lat="47.772529" lon="10.117975">
        <time>1970-01-01T00:00:00+00:00</time>
        <ele>843.0</ele>
      </trkpt>
      <trkpt lat="47.772595" lon="10.117966">
        <time>1970-01-01T00:00:00+00:00</time>
        <ele>842.0</ele>
      </trkpt>
      <trkpt lat="47.772652" lon="10.118041">
        <time>1970-01-01T00:00:00+00:00</time>
        <ele>842.0</ele>
      </trkpt>
      <trkpt lat="47.77269" lon="10.118142">
        <time>1970-01-01T00:00:00+00:00</time>
        <ele>842.0</ele>
      </trkpt>
      <trkpt lat="47.772731" lon="10.118155">
        <time>1970-01-01T00:00:00+00:00</time>
        <ele>842.0</ele>
      </trkpt>
      <trkpt lat="47.772712" lon="10.118696">
        <time>1970-01-01T00:00:00+00:00</time>
        <ele>845.0</ele>
      </trkpt>
      <trkpt lat="47.772755" lon="10.119201">
        <time>1970-01-01T00:00:00+00:00</time>
        <ele>848.0</ele>
      </trkpt>
      <trkpt lat="47.772979" lon="10.12007">
        <time>1970-01-01T00:00:00+00:00</time>
        <ele>850.0</ele>
      </trkpt>
      <trkpt lat="47.773181" lon="10.121037">
        <time>1970-01-01T00:00:00+00:00</time>
        <ele>850.0</ele>
      </trkpt>
      <trkpt lat="47.773256" lon="10.12148">
        <time>1970-01-01T00:00:00+00:00</time>
        <ele>851.0</ele>
      </trkpt>
      <trkpt lat="47.7734" lon="10.121818">
        <time>1970-01-01T00:00:00+00:00</time>
        <ele>852.0</ele>
      </trkpt>
      <trkpt lat="47.773487" lon="10.122274">
        <time>1970-01-01T00:00:00+00:00</time>
        <ele>855.0</ele>
      </trkpt>
      <trkpt lat="47.773518" lon="10.122551">
        <time>1970-01-01T00:00:00+00:00</time>
        <ele>856.0</ele>
      </trkpt>
      <trkpt lat="47.773894" lon="10.123685">
        <time>1970-01-01T00:00:00+00:00</time>
        <ele>860.0</ele>
      </trkpt>
      <trkpt lat="47.773765" lon="10.123857">
        <time>1970-01-01T00:00:00+00:00</time>
        <ele>859.0</ele>
      </trkpt>
      <trkpt lat="47.773729" lon="10.124533">
        <time>1970-01-01T00:00:00+00:00</time>
        <ele>863.0</ele>
      </trkpt>
      <trkpt lat="47.77375" lon="10.124737">
        <time>1970-01-01T00:00:00+00:00</time>
        <ele>863.0</ele>
      </trkpt>
      <trkpt lat="47.774125" lon="10.125584">
        <time>1970-01-01T00:00:00+00:00</time>
        <ele>861.0</ele>
      </trkpt>
      <trkpt lat="47.774327" lon="10.126099">
        <time>1970-01-01T00:00:00+00:00</time>
        <ele>859.0</ele>
      </trkpt>
      <trkpt lat="47.774651" lon="10.126657">
        <time>1970-01-01T00:00:00+00:00</time>
        <ele>860.0</ele>
      </trkpt>
      <trkpt lat="47.774781" lon="10.127204">
        <time>1970-01-01T00:00:00+00:00</time>
        <ele>870.0</ele>
      </trkpt>
      <trkpt lat="47.774882" lon="10.127215">
        <time>1970-01-01T00:00:00+00:00</time>
        <ele>869.0</ele>
      </trkpt>
      <trkpt lat="47.775531" lon="10.127832">
        <time>1970-01-01T00:00:00+00:00</time>
        <ele>874.0</ele>
      </trkpt>
      <trkpt lat="47.776108" lon="10.126845">
        <time>1970-01-01T00:00:00+00:00</time>
        <ele>871.0</ele>
      </trkpt>
      <trkpt lat="47.776311" lon="10.12679">
        <time>1970-01-01T00:00:00+00:00</time>
        <ele>872.0</ele>
      </trkpt>
      <trkpt lat="47.776373" lon="10.126446">
        <time>1970-01-01T00:00:00+00:00</time>
        <ele>870.0</ele>
      </trkpt>
      <trkpt lat="47.776435" lon="10.12629">
        <time>1970-01-01T00:00:00+00:00</time>
        <ele>870.0</ele>
      </trkpt>
      <trkpt lat="47.776435" lon="10.12629">
        <time>1970-01-01T00:00:00+00:00</time>
        <ele>870.0</ele>
      </trkpt>
      <trkpt lat="47.776373" lon="10.126446">
        <time>1970-01-01T00:00:00+00:00</time>
        <ele>870.0</ele>
      </trkpt>
      <trkpt lat="47.776311" lon="10.12679">
        <time>1970-01-01T00:00:00+00:00</time>
        <ele>872.0</ele>
      </trkpt>
      <trkpt lat="47.776108" lon="10.126845">
        <time>1970-01-01T00:00:00+00:00</time>
        <ele>871.0</ele>
      </trkpt>
      <trkpt lat="47.775531" lon="10.127832">
        <time>1970-01-01T00:00:00+00:00</time>
        <ele>874.0</ele>
      </trkpt>
      <trkpt lat="47.774882" lon="10.127215">
        <time>1970-01-01T00:00:00+00:00</time>
        <ele>869.0</ele>
      </trkpt>
      <trkpt lat="47.774781" lon="10.127204">
        <time>1970-01-01T00:00:00+00:00</time>
        <ele>870.0</ele>
      </trkpt>
      <trkpt lat="47.774651" lon="10.126657">
        <time>1970-01-01T00:00:00+00:00</time>
        <ele>860.0</ele>
      </trkpt>
      <trkpt lat="47.774327" lon="10.126099">
        <time>1970-01-01T00:00:00+00:00</time>
        <ele>859.0</ele>
      </trkpt>
      <trkpt lat="47.774125" lon="10.125584">
        <time>1970-01-01T00:00:00+00:00</time>
        <ele>861.0</ele>
      </trkpt>
      <trkpt lat="47.77375" lon="10.124737">
        <time>1970-01-01T00:00:00+00:00</time>
        <ele>863.0</ele>
      </trkpt>
      <trkpt lat="47.773729" lon="10.124533">
        <time>1970-01-01T00:00:00+00:00</time>
        <ele>863.0</ele>
      </trkpt>
      <trkpt lat="47.773765" lon="10.123857">
        <time>1970-01-01T00:00:00+00:00</time>
        <ele>859.0</ele>
      </trkpt>
      <trkpt lat="47.773894" lon="10.123685">
        <time>1970-01-01T00:00:00+00:00</time>
        <ele>860.0</ele>
      </trkpt>
      <trkpt lat="47.773518" lon="10.122551">
        <time>1970-01-01T00:00:00+00:00</time>
        <ele>856.0</ele>
      </trkpt>
      <trkpt lat="47.773487" lon="10.122274">
        <time>1970-01-01T00:00:00+00:00</time>
        <ele>855.0</ele>
      </trkpt>
      <trkpt lat="47.7734" lon="10.121818">
        <time>1970-01-01T00:00:00+00:00</time>
        <ele>852.0</ele>
      </trkpt>
      <trkpt lat="47.773256" lon="10.12148">
        <time>1970-01-01T00:00:00+00:00</time>
        <ele>851.0</ele>
      </trkpt>
      <trkpt lat="47.773181" lon="10.121037">
        <time>1970-01-01T00:00:00+00:00</time>
        <ele>850.0</ele>
      </trkpt>
      <trkpt lat="47.772979" lon="10.12007">
        <time>1970-01-01T00:00:00+00:00</time>
        <ele>850.0</ele>
      </trkpt>
      <trkpt lat="47.772755" lon="10.119201">
        <time>1970-01-01T00:00:00+00:00</time>
        <ele>848.0</ele>
      </trkpt>
      <trkpt lat="47.772712" lon="10.118696">
        <time>1970-01-01T00:00:00+00:00</time>
        <ele>845.0</ele>
      </trkpt>
      <trkpt lat="47.772731" lon="10.118155">
        <time>1970-01-01T00:00:00+00:00</time>
        <ele>842.0</ele>
      </trkpt>
      <trkpt lat="47.77269" lon="10.118142">
        <time>1970-01-01T00:00:00+00:00</time>
        <ele>842.0</ele>
      </trkpt>
      <trkpt lat="47.772652" lon="10.118041">
        <time>1970-01-01T00:00:00+00:00</time>
        <ele>842.0</ele>
      </trkpt>
      <trkpt lat="47.772595" lon="10.117966">
        <time>1970-01-01T00:00:00+00:00</time>
        <ele>842.0</ele>
      </trkpt>
      <trkpt lat="47.772529" lon="10.117975">
        <time>1970-01-01T00:00:00+00:00</time>
        <ele>843.0</ele>
      </trkpt>
      <trkpt lat="47.772141" lon="10.118184">
        <time>1970-01-01T00:00:00+00:00</time>
        <ele>844.0</ele>
      </trkpt>
      <trkpt lat="47.772055" lon="10.118103">
        <time>1970-01-01T00:00:00+00:00</time>
        <ele>844.0</ele>
      </trkpt>
      <trkpt lat="47.771903" lon="10.118285">
        <time>1970-01-01T00:00:00+00:00</time>
        <ele>845.0</ele>
      </trkpt>
      <trkpt lat="47.771842" lon="10.118431">
        <time>1970-01-01T00:00:00+00:00</time>
        <ele>845.0</ele>
      </trkpt>
      <trkpt lat="47.771166" lon="10.117599">
        <time>1970-01-01T00:00:00+00:00</time>
        <ele>836.0</ele>
      </trkpt>
      <trkpt lat="47.77022" lon="10.11635">
        <time>1970-01-01T00:00:00+00:00</time>
        <ele>826.0</ele>
      </trkpt>
      <trkpt lat="47.770121" lon="10.116138">
        <time>1970-01-01T00:00:00+00:00</time>
        <ele>825.0</ele>
      </trkpt>
      <trkpt lat="47.769914" lon="10.115467">
        <time>1970-01-01T00:00:00+00:00</time>
        <ele>823.0</ele>
      </trkpt>
      <trkpt lat="47.769736" lon="10.115056">
        <time>1970-01-01T00:00:00+00:00</time>
        <ele>822.0</ele>
      </trkpt>
      <trkpt lat="47.769573" lon="10.114557">
        <time>1970-01-01T00:00:00+00:00</time>
        <ele>822.0</ele>
      </trkpt>
      <trkpt lat="47.769343" lon="10.114584">
        <time>1970-01-01T00:00:00+00:00</time>
        <ele>822.0</ele>
      </trkpt>
      <trkpt lat="47.769055" lon="10.11453">
        <time>1970-01-01T00:00:00+00:00</time>
        <ele>815.0</ele>
      </trkpt>
      <trkpt lat="47.768959" lon="10.114468">
        <time>1970-01-01T00:00:00+00:00</time>
        <ele>813.0</ele>
      </trkpt>
      <trkpt lat="47.76877" lon="10.114083">
        <time>1970-01-01T00:00:00+00:00</time>
        <ele>809.0</ele>
      </trkpt>
      <trkpt lat="47.768678" lon="10.113976">
        <time>1970-01-01T00:00:00+00:00</time>
        <ele>808.0</ele>
      </trkpt>
      <trkpt lat="47.768523" lon="10.114039">
        <time>1970-01-01T00:00:00+00:00</time>
        <ele>803.0</ele>
      </trkpt>
      <trkpt lat="47.76852" lon="10.114021">
        <time>1970-01-01T00:00:00+00:00</time>
        <ele>804.0</ele>
      </trkpt>
      <trkpt lat="47.768513" lon="10.113982">
        <time>1970-01-01T00:00:00+00:00</time>
        <ele>804.0</ele>
      </trkpt>
      <trkpt lat="47.768506" lon="10.113937">
        <time>1970-01-01T00:00:00+00:00</time>
        <ele>805.0</ele>
      </trkpt>
      <trkpt lat="47.768496" lon="10.113892">
        <time>1970-01-01T00:00:00+00:00</time>
        <ele>806.0</ele>
      </trkpt>
      <trkpt lat="47.76839" lon="10.113659">
        <time>1970-01-01T00:00:00+00:00</time>
        <ele>808.0</ele>
      </trkpt>
      <trkpt lat="47.768114" lon="10.113431">
        <time>1970-01-01T00:00:00+00:00</time>
        <ele>819.0</ele>
      </trkpt>
      <trkpt lat="47.767838" lon="10.113288">
        <time>1970-01-01T00:00:00+00:00</time>
        <ele>820.0</ele>
      </trkpt>
      <trkpt lat="47.767415" lon="10.11321">
        <time>1970-01-01T00:00:00+00:00</time>
        <ele>810.0</ele>
      </trkpt>
      <trkpt lat="47.76707" lon="10.112983">
        <time>1970-01-01T00:00:00+00:00</time>
        <ele>793.0</ele>
      </trkpt>
      <trkpt lat="47.766953" lon="10.112906">
        <time>1970-01-01T00:00:00+00:00</time>
        <ele>783.0</ele>
      </trkpt>
      <trkpt lat="47.766726" lon="10.112314">
        <time>1970-01-01T00:00:00+00:00</time>
        <ele>772.0</ele>
      </trkpt>
      <trkpt lat="47.766419" lon="10.112464">
        <time>1970-01-01T00:00:00+00:00</time>
        <ele>772.0</ele>
      </trkpt>
      <trkpt lat="47.766348" lon="10.112415">
        <time>1970-01-01T00:00:00+00:00</time>
        <ele>773.0</ele>
      </trkpt>
      <trkpt lat="47.766229" lon="10.11227">
        <time>1970-01-01T00:00:00+00:00</time>
        <ele>774.0</ele>
      </trkpt>
      <trkpt lat="47.76616" lon="10.112262">
        <time>1970-01-01T00:00:00+00:00</time>
        <ele>776.0</ele>
      </trkpt>
      <trkpt lat="47.766088" lon="10.112337">
        <time>1970-01-01T00:00:00+00:00</time>
        <ele>777.0</ele>
      </trkpt>
      <trkpt lat="47.765519" lon="10.111453">
        <time>1970-01-01T00:00:00+00:00</time>
        <ele>790.0</ele>
      </trkpt>
      <trkpt lat="47.765243" lon="10.110591">
        <time>1970-01-01T00:00:00+00:00</time>
        <ele>785.0</ele>
      </trkpt>
      <trkpt lat="47.765142" lon="10.110271">
        <time>1970-01-01T00:00:00+00:00</time>
        <ele>776.0</ele>
      </trkpt>
      <trkpt lat="47.764991" lon="10.10988">
        <time>1970-01-01T00:00:00+00:00</time>
        <ele>765.0</ele>
      </trkpt>
      <trkpt lat="47.764482" lon="10.109131">
        <time>1970-01-01T00:00:00+00:00</time>
        <ele>760.0</ele>
      </trkpt>
      <trkpt lat="47.764193" lon="10.108427">
        <time>1970-01-01T00:00:00+00:00</time>
        <ele>755.0</ele>
      </trkpt>
      <trkpt lat="47.763994" lon="10.10807">
        <time>1970-01-01T00:00:00+00:00</time>
        <ele>754.0</ele>
      </trkpt>
      <trkpt lat="47.763823" lon="10.107695">
        <time>1970-01-01T00:00:00+00:00</time>
        <ele>752.0</ele>
      </trkpt>
      <trkpt lat="47.763799" lon="10.107661">
        <time>1970-01-01T00:00:00+00:00</time>
        <ele>752.0</ele>
      </trkpt>
      <trkpt lat="47.763506" lon="10.107433">
        <time>1970-01-01T00:00:00+00:00</time>
        <ele>753.0</ele>
      </trkpt>
      <trkpt lat="47.76275" lon="10.107109">
        <time>1970-01-01T00:00:00+00:00</time>
        <ele>755.0</ele>
      </trkpt>
      <trkpt lat="47.762552" lon="10.106997">
        <time>1970-01-01T00:00:00+00:00</time>
        <ele>753.0</ele>
      </trkpt>
      <trkpt lat="47.762166" lon="10.106937">
        <time>1970-01-01T00:00:00+00:00</time>
        <ele>750.0</ele>
      </trkpt>
      <trkpt lat="47.762068" lon="10.106891">
        <time>1970-01-01T00:00:00+00:00</time>
        <ele>748.0</ele>
      </trkpt>
      <trkpt lat="47.761898" lon="10.106771">
        <time>1970-01-01T00:00:00+00:00</time>
        <ele>746.0</ele>
      </trkpt>
      <trkpt lat="47.761636" lon="10.106483">
        <time>1970-01-01T00:00:00+00:00</time>
        <ele>746.0</ele>
      </trkpt>
      <trkpt lat="47.761541" lon="10.106338">
        <time>1970-01-01T00:00:00+00:00</time>
        <ele>746.0</ele>
      </trkpt>
    </trkseg>
  </trk>
</gpx>
